Regional Weather Roundup
Issued by NWS

Home | Current Version | Previous Version | Graphics & Text | Print | Product List | Glossary On
Versions: 1 2 3 4 5 6 7 8 9 10 11 12 13 14 15 16 17 18 19 20 21 22 23 24 25 26 27 28 29 30 31 32 33 34 35 36 37 38 39 40 41 42 43 44 45 46 47 48 49 50
000
ASUS43 KOAX 201002
RWRNE

WEATHER ROUNDUP FOR NEBRASKA
NATIONAL WEATHER SERVICE OMAHA NE
400 AM CST FRI JAN 20 2017

NOTES: SATELLITE DATA IS BEING USED TO AUGMENT CLOUD COVER ABOVE
       12000 FEET.
       "FAIR" INDICATES FEW OR NO CLOUDS BELOW 12,000 FEET WITH NO
       SIGNIFICANT WEATHER AND/OR OBSTRUCTIONS TO VISIBILITY.

  * THESE STATIONS DO NOT REPORT WEATHER SUCH AS RAIN...SNOW OR FOG.

NEZ001>004-019>022-054>056-201100-
NEBRASKA PANHANDLE

CITY           SKY/WX    TMP DP  RH WIND       PRES   REMARKS
SCOTTSBLUFF    CLOUDY    28  22  78 NW6       29.46F WCI  22
ALLIANCE       CLOUDY    17  13  84 NW3       29.44F
CHADRON        CLOUDY    19  16  88 W3        29.45R
KIMBALL        CLOUDY    32  27  81 NW9       29.47S WCI  24
SIDNEY         CLOUDY    26  22  84 NW9       29.46F WCI  17
$$

NEZ057>060-069>072-079>082-201100-
SOUTHWEST NEBRASKA

CITY           SKY/WX    TMP DP  RH WIND       PRES   REMARKS
NORTH PLATTE   CLOUDY    36  33  89 SW8       29.50R WCI  30
IMPERIAL       FOG       29  28  96 W3        29.48F VSB 1/2
LEXINGTON      FOG       35  34  96 S3        29.50F VSB 3/4
MCCOOK         FOG       33  33 100 CALM      29.50F VSB 1/2
OGALLALA       FOG       28  28  97 CALM      29.48F VSB 1/2
$$

NEZ005>010-023>029-035>040-094-201100-
NORTH CENTRAL NEBRASKA

CITY           SKY/WX    TMP DP  RH WIND       PRES   REMARKS
VALENTINE      CLOUDY    24  20  84 SW7       29.41F WCI  16
AINSWORTH      CLEAR     31  31  99 SW10      29.42F WCI  22
BROKEN BOW     FOG       33  33 100 S6        29.47F VSB 1/4 WCI  28
O`NEILL        CLOUDY    39  37  94 SW14      29.45F WCI  31
ORD            CLEAR     35  32  88 SE5       29.46F FOG     WCI  31
THEDFORD       MOCLDY    31  31  99 SW10      29.45F WCI  22
$$

NEZ041-046>049-061>064-073>077-083>087-201100-
SOUTH CENTRAL NEBRASKA

CITY           SKY/WX    TMP DP  RH WIND       PRES   REMARKS
GRAND ISLAND   FOG       35  35 100 SE3       29.49F VSB 1/4
AURORA         FOG       36  36 100 E3        29.50F VSB 1/2
HASTINGS       FOG       36  35  96 CALM      29.50F VSB 1/4
HEBRON         FOG       38  38  99 CALM      29.52F VSB 1/2
HOLDREGE       FOG       35  34  97 CALM      29.51S VSB 1/4
KEARNEY *      CLOUDY    36  34  93 CALM      29.50F VSB 1/4
YORK           FOG       37  37 100 CALM      29.52F VSB 1/2
$$

NEZ011>018-030>034-042>045-201100-
NORTHEAST NEBRASKA

CITY           SKY/WX    TMP DP  RH WIND       PRES   REMARKS
NORFOLK        CLOUDY    37  36  96 SE8       29.50F WCI  31
ALBION         CLOUDY   N/A N/A N/A SE6       29.50F HAZE
BLAIR          CLOUDY    39  39  98 E7        29.56F FOG     WCI  34
FREMONT        FOG       38  38 100 CALM      29.56F VSB 1/2
TEKAMAH        FOG       36  36 100 SE3       29.57F VSB 1/2
WAYNE          CLOUDY    37  37  99 SE10      29.52F WCI  30
$$

NEZ050>053-065>068-078-088>093-201100-
SOUTHEAST NEBRASKA

CITY           SKY/WX    TMP DP  RH WIND       PRES   REMARKS
LINCOLN        FOG       39  39 100 W5        29.57F VSB 1/4
OMAHA EPPLEY   FOG       37  34  89 CALM      29.58F VSB 1/2
BEATRICE       CLOUDY    40  40 100 CALM      29.53F FOG
FALLS CITY     FOG       40  40 100 NE3       29.57F VSB 1/4
NEBRASKA CITY  FOG       39  39 100 CALM      29.58F VSB 1/4
PLATTSMOUTH    FOG       38  37  93 NE3       29.57F VSB 1/4
$$

NEZ044-045-051>053-067-201100-
OMAHA AREA

CITY           SKY/WX    TMP DP  RH WIND       PRES   REMARKS
OMAHA EPPLEY   FOG       37  34  89 CALM      29.58F VSB 1/2
BLAIR          CLOUDY    39  39  98 E7        29.56F FOG     WCI  34
FREMONT        FOG       38  38 100 CALM      29.56F VSB 1/2
MILLARD        FOG       40  39  97 CALM      29.57F VSB 1
OFFUTT AFB     FOG       38  38 100 CALM      29.57F VSB 1/2
PLATTSMOUTH    FOG       38  37  93 NE3       29.57F VSB 1/4
WAHOO          FOG       37  36  96 CALM      29.55F VSB 1/4
$$



USA.gov is the U.S. government's official web portal to all federal, state and local government web resources and services.